Rosario, Argentina

5:23 PM America en Septiembre 21, 2018 (GMT +0000)
Rosario

Tiempo Historia de SAAR - Julio, 2018

Change the Weather History Date:

Jueves, Julio 12, 2018

  Actual Average Record
Temperature  
Temperatura media 48 ° F -  
Temperatura máxima 62 ° F 63 ° F 71 ° F (2005)
Temperatura mínima 34 ° F 42 ° F 26 ° F (2007)
Degree Days  
Grados día de calefacción 17    
Moisture  
Punto de rocío 42 ° F    
Average Humidity 86    
Maximum Humidity 100    
Minimum Humidity 42    
Precipitación  
Precipitación 0.00 pul 0.05 pul - ()
Presión al nivel del mar  
Presión al nivel del mar 30.11 pul    
Viento  
Velocidad del viento 3 mph ()    
Velocidad máxima del viento 17 mph    
Max Gust Speed -    
Visibilidad 2.3 Millas    
Eventos Niebla    
Averages and records for this station are not official NWS values.
T = Trace of Precipitation, MM = Missing Value Source: Averaged Metar Reports

Daily Weather History Graph

Daily Weather History Graph

Search for Another Location

Airport or City:

Astronomía

Jul. 12, 2018 Salida Puesta
Hora real 8:04 AM -03 6:12 PM -03
Crepúsculo civil 7:37 AM -03 6:39 PM -03
Crepúsculo náutico 7:07 AM -03 7:10 PM -03
Crepúsculo astronómico 6:37 AM -03 7:40 PM -03
Luna 7:23 AM -03 (7/12) 5:55 PM -03 (7/12)
Horas de luz 11h 02m
Horas de luz
10h 08m
Creciente menguante, 0% of the Moon is Illuminated
Jul 12
Creciente menguante
Jul 12
Nueva
Jul 19
Cuarto creciente
Jul 27
Luna llena
Ago 4
Cuarto menguante

Hourly Weather History & Observations

Hora (-03) Temp. Vientos helados Punto de rocío Humedad Presión Visibilidad Wind Dir Velocidad del viento Velocidad de ráfagas Precip Eventos Condiciones
12:00 AM 43 ° F - 42 ° F 94% 30.23 pul 1 mi Sin viento Sin viento - - Niebla Bancos de niebla
12:00 AM 42.8 ° F - 42.8 ° F 100% 30.21 pul 0.8 mi Sin viento Sin viento - N/A Niebla Niebla
12:31 AM 42.8 ° F - 42.8 ° F 100% 30.21 pul 1.9 mi NNO 2.3 mph - N/A Niebla Niebla
1:00 AM 42.8 ° F 41.1 ° F 42.8 ° F 100% 30.21 pul 0.7 mi NNE 3.5 mph - N/A Niebla Niebla
2:00 AM 42.8 ° F - 41.0 ° F 93% 30.18 pul 5.0 mi Sin viento Sin viento - N/A Niebla Niebla
2:42 AM 42.8 ° F - 41.0 ° F 93% 30.15 pul 3.1 mi NE 2.3 mph - N/A Niebla Niebla
3:00 AM 42 ° F - 41 ° F 94% 30.17 pul 2 mi ENE 2.3 mph - - Niebla Bancos de niebla
3:00 AM 42.8 ° F - 41.0 ° F 93% 30.15 pul 1.9 mi ENE 2.3 mph - N/A Niebla Niebla
4:00 AM 41.0 ° F 39.0 ° F 41.0 ° F 100% 30.15 pul 3.7 mi Norte 3.5 mph - N/A Niebla Niebla
4:33 AM 41.0 ° F - 41.0 ° F 100% 30.12 pul 2.5 mi Sin viento Sin viento - N/A Niebla Niebla
5:00 AM 41.0 ° F - 39.2 ° F 93% 30.12 pul 2.5 mi Sin viento Sin viento - N/A Niebla Niebla
5:17 AM 41.0 ° F - 39.2 ° F 93% 30.12 pul 1.2 mi ONO 2.3 mph - N/A Niebla Niebla
5:32 AM 41.0 ° F - 39.2 ° F 93% 30.12 pul 0.8 mi NO 2.3 mph - N/A Niebla Niebla
6:00 AM 40 ° F - 39 ° F 97% 30.14 pul 1 mi Sin viento Sin viento - - Niebla Bancos de niebla
6:00 AM 39.2 ° F - 39.2 ° F 100% 30.12 pul 0.9 mi Sin viento Sin viento - N/A Niebla Niebla
6:34 AM 39.2 ° F - 39.2 ° F 100% 30.12 pul 0.5 mi Sin viento Sin viento - N/A Niebla Niebla
7:00 AM 39.2 ° F - 37.4 ° F 93% 30.12 pul 0.5 mi Oeste 2.3 mph - N/A Niebla Niebla
7:11 AM 39.2 ° F 35.0 ° F 39.2 ° F 100% 30.15 pul 0.9 mi OSO 5.8 mph - N/A Niebla Niebla
7:23 AM 39.2 ° F - 37.4 ° F 93% 30.12 pul 0.6 mi ONO 2.3 mph - N/A Niebla Niebla
7:28 AM 39.2 ° F - 37.4 ° F 93% 30.12 pul 0.4 mi NO 2.3 mph - N/A Niebla Niebla
7:36 AM 39.2 ° F - 37.4 ° F 93% 30.12 pul 0.2 mi NO 2.3 mph - N/A Niebla Niebla
8:00 AM 37.4 ° F - 35.6 ° F 93% 30.15 pul 0.2 mi OSO 2.3 mph - N/A Niebla Niebla
9:00 AM 35 ° F - 34 ° F 96% 30.15 pul 0 mi NNO 2.3 mph - - Niebla Poca niebla
9:00 AM 35.6 ° F - 33.8 ° F 93% 30.15 pul 0.1 mi NNO 2.3 mph - N/A Niebla Niebla
9:40 AM 35.6 ° F 31.7 ° F 33.8 ° F 93% 30.15 pul 0.5 mi NNO 4.6 mph - N/A Niebla Niebla
9:50 AM 35.6 ° F 29.9 ° F 33.8 ° F 93% 30.15 pul 0.8 mi NNO 6.9 mph - N/A   Parcialmente nublado
10:00 AM 42.8 ° F 38.0 ° F 42.8 ° F 100% 30.12 pul 3.1 mi NNO 8.1 mph - N/A   Parcialmente nublado
11:00 AM 51.8 ° F - 44.6 ° F 76% 30.12 pul 3.7 mi Norte 8.1 mph - N/A   Desconocido
12:00 PM 57 ° F - 46 ° F 57% 30.12 pul 4 mi NNO 17.3 mph - -   Bruma
12:00 PM 57.2 ° F - 46.4 ° F 67% 30.09 pul 3.7 mi NNO 17.3 mph - N/A   Nubes dispersas
1:00 PM 59.0 ° F - 44.6 ° F 59% 30.06 pul 6.2 mi NO 11.5 mph - N/A   Muy nublado
2:00 PM 60.8 ° F - 44.6 ° F 55% 30.04 pul - Norte 12.7 mph - N/A   Despejado
3:00 PM 62 ° F - 45 ° F 42% 30.04 pul 9 mi NNO 11.5 mph - -   Parcialmente nublado
3:00 PM 60.8 ° F - 44.6 ° F 55% 30.04 pul - NNO 11.5 mph - N/A   Despejado
4:00 PM 62.6 ° F - 44.6 ° F 52% 30.01 pul - NO 5.8 mph - N/A   Despejado
5:00 PM 60.8 ° F - 48.2 ° F 63% 30.01 pul - Norte 6.9 mph - N/A   Despejado
6:00 PM 56 ° F - 50 ° F 75% 30.03 pul 9 mi NNE 5.8 mph - -   Despejado
6:00 PM 55.4 ° F - 50.0 ° F 82% 30.01 pul - NNE 5.8 mph - N/A   Despejado
7:00 PM 51.8 ° F - 44.6 ° F 76% 29.98 pul - NNE 10.4 mph - N/A   Despejado
8:00 PM 51.8 ° F - 46.4 ° F 82% 30.01 pul - Norte 6.9 mph - N/A   Despejado
9:00 PM 49 ° F - 45 ° F 83% 30.04 pul 7 mi ENE 2.3 mph - -   Despejado
9:00 PM 50.0 ° F - 44.6 ° F 82% 30.04 pul - ENE 2.3 mph - N/A   Despejado
10:00 PM 46.4 ° F - 44.6 ° F 93% 30.01 pul - Norte 2.3 mph - N/A   Despejado
11:00 PM 46.4 ° F 45.2 ° F 44.6 ° F 93% 30.04 pul - Sur 3.5 mph - N/A   Despejado